User: anonymous   Login
Location: Keeble Observatory
(37.7625°N, 77.4755°W)
Time: 11:27:54
(UTC-04:00)
Language:

Cosmos 1484 Rocket - Orbit

View from above orbital plane
View from above orbital plane
View from above satellite
View from above satellite

Ground track
Ground track

The orbit data is extracted from the following two-line orbital elements,

1 14208U 83075B   15090.50435614  .00004585  00000-0  29154-3 0  9997
2 14208 097.3924 121.9357 0042092 039.1948 321.2316 15.08556096725490
Epoch (UTC): 31 March 2015 12:06:16
Eccentricity: 0.0042092
inclination: 97.3924°
perigee height: 511 km
apogee height: 570 km
right ascension of ascending node: 121.9357°
argument of perigee: 39.1948°
revolutions per day: 15.08556096
mean anomaly at epoch: 321.2316°
orbit number at epoch: 72549

The dashed part of the orbit path shows where the satellite is in the earth's shadow,  

DLR